Wind_Speed
25 25 26 25 25 25 26 26 25 26 25 25 25 26 26 26 26 27 27 27 27 27 26 26 26 26 26 26 26 26 26 26 26 26 26 26 26 25 24 24 25 26 28
24 24 24 24 25 25 25 25 25 26 25 25 25 25 25 26 26 26 26 26 27 26 26 26 26 26 26 26 25 26 26 26 26 25 24 24 23 23 23 23 24 25 26
23 24 23 24 24 24 24 24 24 25 25 25 24 25 24 26 26 26 26 25 25 25 25 26 26 26 26 26 26 26 26 25 25 24 24 23 22 22 21 21 22 23 24
23 23 23 23 22 22 22 22 23 23 24 23 23 23 24 25 25 25 24 24 25 25 25 25 26 26 26 26 26 26 26 25 24 24 23 22 21 20 20 19 20 21 23
22 22 21 21 20 20 20 21 22 22 22 22 22 22 23 23 23 23 24 25 25 25 25 25 25 25 26 26 25 25 25 25 23 22 21 21 20 19 19 20 20 21 22
21 20 19 18 19 19 19 19 20 21 21 21 21 21 21 22 22 24 25 25 25 25 24 24 24 25 25 24 24 24 23 23 22 22 21 21 20 19 20 20 21 21 21
18 18 17 17 17 17 17 18 19 19 20 20 20 20 20 21 23 24 24 24 24 24 23 23 23 23 23 22 23 23 23 23 23 23 22 21 20 20 20 21 21 22 21
16 15 16 15 15 16 16 17 18 18 19 19 19 19 20 20 21 22 23 23 22 22 22 22 22 22 22 23 23 23 23 24 24 24 23 22 22 21 21 21 21 21 21
15 15 14 14 15 15 16 17 17 18 18 18 19 19 20 21 21 22 22 22 22 22 21 22 22 22 23 23 23 24 24 24 24 24 24 23 22 22 22 22 22 22 20
15 15 14 14 15 15 16 16 16 17 17 18 18 19 20 20 21 21 22 22 22 22 22 23 23 24 24 24 24 25 24 23 22 22 21 21 21 21 22 22 22 22 21
14 14 14 14 14 15 15 15 16 16 17 18 19 19 20 20 22 22 23 23 23 23 23 24 24 25 24 25 25 25 24 23 22 21 21 20 21 21 22 22 23 23 22
13 13 14 14 14 15 15 16 16 17 18 18 19 19 20 21 22 23 23 24 24 24 24 25 25 25 25 25 25 24 23 23 22 22 21 21 21 21 21 21 21 22 22
12 13 13 14 15 16 17 17 17 18 18 18 19 20 21 22 22 23 23 25 26 26 26 26 26 26 25 25 24 23 23 23 23 22 21 21 21 21 21 20 20 21 22
12 13 13 15 15 16 17 18 18 18 19 20 21 21 22 22 23 24 25 26 27 28 28 28 27 26 25 24 23 23 23 23 22 21 21 20 20 20 20 20 19 20 21
12 13 14 15 16 17 18 18 19 20 20 21 22 22 23 23 24 25 27 28 29 30 30 29 28 26 26 25 24 23 22 22 21 21 21 21 20 20 19 20 21 21 21
12 13 14 15 16 18 18 18 19 20 20 22 22 23 24 24 26 27 28 29 30 31 30 29 28 28 26 25 24 23 22 21 21 21 20 19 19 19 19 20 20 21 21
12 13 14 15 17 17 18 19 19 20 22 22 24 24 25 26 27 28 30 30 31 31 30 28 28 27 26 25 24 23 22 21 21 20 20 19 18 18 19 20 20 21 21
12 13 14 16 17 18 19 20 21 22 23 24 25 25 26 27 28 29 30 30 31 31 29 28 27 26 25 25 25 24 23 22 21 21 21 20 20 19 19 20 21 21 21
12 13 14 16 17 19 20 21 22 23 24 25 26 27 27 28 29 30 30 30 31 31 30 29 28 27 26 26 25 24 23 23 23 22 22 22 21 21 20 20 20 20 21
12 13 14 16 18 19 21 22 23 24 25 26 27 28 29 31 31 31 31 31 31 31 31 30 29 28 27 26 25 24 23 23 22 22 22 22 21 21 21 21 21 21 22
12 13 15 16 18 20 21 23 24 25 26 27 29 30 31 32 32 31 31 31 31 31 30 30 30 28 27 26 25 24 23 22 22 23 23 22 22 22 21 21 22 22 23
12 14 15 17 18 20 22 24 25 26 27 29 30 31 32 32 32 32 31 31 31 31 31 30 29 29 27 26 25 25 24 24 24 23 23 22 21 21 21 21 21 21 21
13 14 15 17 19 20 22 24 25 27 28 30 31 32 33 33 33 33 32 32 31 31 30 29 29 28 27 26 26 25 25 25 24 23 23 22 22 21 20 20 20 20 20
13 14 16 17 19 21 23 25 27 28 29 31 32 33 33 33 33 33 32 32 31 31 30 30 30 29 28 28 27 27 27 26 25 24 24 23 22 21 20 19 19 19 19
13 14 16 18 19 21 23 25 27 29 30 31 32 33 33 34 33 33 33 32 31 31 31 31 30 31 30 30 29 28 28 27 26 24 23 22 22 21 20 19 19 19 18
13 15 16 18 20 22 24 26 28 30 31 32 33 34 34 34 34 34 33 33 32 32 32 32 32 32 32 31 30 29 28 27 25 24 23 22 21 20 19 18 18 17 17
Wind_Direction
295 297 297 295 296 296 296 297 295 297 297 297 300 303 304 304 306 306 303 304 303 301 300 300 299 298 298 298 299 298 298 298 297 295 291 289 285 281 276 269 263 258 254
298 299 300 299 299 298 296 296 296 298 297 299 300 303 304 306 307 306 305 305 304 303 301 301 300 300 301 299 298 299 299 297 296 295 293 290 286 281 275 269 264 259 257
301 301 301 301 301 299 296 296 298 299 300 300 300 303 305 307 306 307 306 306 306 304 302 300 301 302 302 301 298 298 299 299 297 294 292 290 286 280 274 269 265 261 259
304 302 301 302 303 301 300 299 301 302 302 301 302 303 305 307 308 309 308 308 308 307 305 301 301 301 302 301 299 298 298 298 297 294 292 288 284 278 273 268 267 263 260
306 305 304 304 305 303 303 302 303 303 303 303 303 304 304 306 308 310 311 311 310 309 306 302 301 302 303 301 301 299 299 298 297 295 292 288 282 277 272 268 267 263 261
309 309 308 306 306 305 304 305 305 305 307 306 305 306 306 308 312 313 312 313 312 310 308 306 305 304 305 303 302 302 301 300 298 295 291 288 283 276 272 270 268 265 264
316 314 313 311 311 310 308 311 311 310 310 310 310 309 310 310 311 316 315 315 315 315 313 309 307 308 309 308 305 304 303 300 297 296 292 289 284 279 274 272 271 268 266
327 324 321 317 317 317 315 317 318 316 315 314 315 314 312 312 315 319 319 318 317 318 318 315 311 310 310 308 305 305 303 301 297 294 291 287 282 278 277 274 271 266 265
333 333 330 325 325 326 324 322 321 320 318 317 319 319 315 314 317 319 320 318 318 318 319 316 313 311 310 308 306 305 303 301 299 296 290 285 282 278 274 272 267 264 263
336 335 335 333 329 327 329 328 326 325 323 322 322 321 318 317 319 320 319 321 320 319 319 318 316 314 312 310 308 306 303 301 299 296 293 288 285 282 277 271 268 262 259
335 336 337 339 337 335 334 334 333 332 329 326 325 323 322 322 321 321 321 323 323 322 322 320 318 316 314 311 310 308 306 302 299 296 293 289 286 284 280 274 269 264 260
336 338 340 342 342 343 342 340 339 336 332 329 328 326 326 326 325 324 324 324 325 326 325 321 319 317 315 313 311 309 307 305 300 296 293 291 287 282 278 274 269 264 261
341 343 343 344 345 344 344 343 341 338 337 335 333 333 332 332 331 330 328 328 327 326 327 325 322 320 318 315 312 310 307 305 302 297 294 292 290 286 280 274 268 263 262
344 346 347 347 347 345 345 344 343 341 340 340 338 336 335 335 333 332 331 330 328 326 324 323 323 322 319 316 312 309 309 307 304 300 296 292 289 286 281 275 270 266 265
346 347 349 350 348 346 344 346 345 344 342 341 338 337 337 336 335 334 333 333 332 330 329 327 325 323 320 317 314 311 309 309 308 305 301 295 288 284 281 276 273 270 268
348 348 349 349 349 349 347 346 346 346 344 342 340 340 338 337 337 337 337 336 335 335 333 330 328 325 322 319 315 313 310 309 309 309 303 297 290 284 280 276 275 274 271
351 351 351 352 352 352 350 349 349 348 346 344 344 342 340 339 338 338 337 336 336 336 335 334 331 329 325 322 319 315 313 310 310 309 307 302 296 289 284 279 277 276 273
353 353 355 355 355 354 352 351 349 348 347 345 345 345 343 340 338 338 337 337 338 338 337 335 334 332 329 325 322 318 315 313 311 309 307 303 298 294 289 285 281 279 276
354 356 357 355 354 353 352 351 350 349 348 347 346 345 344 342 340 340 339 339 339 339 338 336 335 334 331 328 326 323 318 315 314 312 310 306 301 296 294 291 287 283 278
356 357 356 354 354 353 352 352 351 350 349 348 347 346 345 343 342 342 342 340 340 340 339 338 337 336 334 333 331 327 323 320 316 314 313 310 305 300 296 293 289 285 280
354 355 354 354 355 354 354 354 352 351 351 349 348 347 345 343 343 342 342 342 342 342 341 339 339 337 335 333 333 332 328 322 318 315 313 310 307 303 298 294 290 288 284
354 354 355 356 356 356 355 354 353 352 352 351 350 348 347 346 346 346 345 343 343 342 342 341 341 340 338 335 333 332 330 326 322 319 316 314 311 307 304 299 294 290 286
353 354 355 356 356 355 355 354 354 354 353 352 351 350 349 349 348 348 346 345 344 344 344 343 343 342 341 339 337 334 332 330 327 324 320 317 313 309 304 301 297 293 289
354 354 354 355 355 355 355 355 354 354 353 353 352 352 351 351 351 349 348 347 347 347 347 347 346 345 343 341 339 336 334 332 330 327 323 319 317 314 310 307 303 299 293
353 353 354 354 355 355 355 354 354 355 354 354 354 353 353 354 354 353 352 352 351 351 351 351 349 347 345 344 342 339 336 334 331 328 325 322 319 317 313 310 308 306 301
352 352 353 354 355 354 355 355 355 356 356 356 356 355 355 356 356 356 356 355 354 353 352 352 351 350 349 347 345 344 342 340 336 335 332 328 324 322 319 315 311 309 307
Height
5769 5767 5765 5763 5761 5759 5758 5756 5754 5752 5750 5749 5746 5744 5741 5739 5735 5732 5729 5726 5724 5720 5718 5715 5712 5710 5707 5704 5702 5699 5696 5694 5692 5690 5687 5686 5684 5683 5683 5683 5684 5686 5687
5763 5761 5759 5757 5755 5753 5752 5750 5748 5746 5744 5742 5740 5738 5735 5732 5729 5726 5723 5720 5717 5714 5711 5708 5706 5703 5700 5698 5695 5692 5690 5687 5685 5683 5681 5679 5677 5676 5676 5676 5677 5678 5680
5758 5756 5753 5751 5749 5748 5746 5744 5742 5740 5739 5736 5734 5732 5729 5726 5723 5720 5717 5714 5710 5707 5704 5702 5699 5696 5694 5691 5688 5685 5683 5680 5678 5676 5674 5672 5671 5670 5669 5670 5670 5671 5673
5752 5750 5748 5746 5744 5742 5740 5739 5737 5735 5733 5731 5729 5726 5724 5721 5718 5715 5711 5708 5705 5701 5698 5695 5692 5690 5687 5684 5681 5679 5676 5674 5671 5669 5667 5666 5665 5664 5663 5664 5664 5665 5666
5747 5745 5743 5741 5739 5737 5735 5733 5731 5729 5727 5725 5723 5721 5718 5716 5712 5709 5706 5702 5699 5695 5692 5689 5686 5683 5680 5677 5675 5672 5669 5667 5665 5663 5661 5660 5659 5658 5658 5658 5658 5658 5659
5742 5740 5738 5736 5734 5733 5731 5729 5727 5725 5723 5720 5718 5716 5713 5710 5707 5704 5700 5697 5693 5689 5686 5683 5680 5677 5674 5671 5668 5665 5663 5661 5659 5657 5655 5653 5652 5652 5651 5651 5651 5652 5652
5738 5736 5734 5732 5730 5729 5727 5725 5723 5720 5718 5715 5713 5711 5708 5705 5702 5699 5695 5692 5688 5684 5681 5677 5674 5671 5668 5665 5663 5660 5657 5655 5653 5650 5649 5647 5646 5645 5645 5644 5644 5644 5645
5735 5733 5731 5729 5728 5726 5723 5721 5719 5716 5714 5711 5709 5706 5704 5701 5698 5694 5691 5687 5683 5680 5676 5672 5669 5666 5663 5660 5657 5654 5651 5649 5646 5643 5642 5641 5639 5638 5638 5637 5637 5638 5638
5734 5731 5729 5727 5725 5723 5721 5718 5716 5713 5711 5708 5705 5703 5700 5697 5694 5690 5687 5683 5679 5675 5671 5668 5664 5661 5658 5654 5651 5648 5645 5642 5639 5637 5635 5633 5632 5631 5630 5630 5630 5631 5632
5732 5730 5728 5726 5723 5721 5718 5715 5713 5710 5708 5705 5702 5699 5697 5694 5690 5686 5682 5679 5675 5671 5667 5663 5659 5655 5652 5648 5644 5641 5638 5635 5632 5630 5628 5626 5625 5624 5623 5623 5623 5624 5625
5732 5729 5727 5724 5722 5719 5716 5714 5711 5708 5706 5703 5700 5697 5693 5690 5687 5683 5679 5674 5670 5666 5662 5658 5654 5650 5645 5642 5638 5634 5631 5628 5625 5623 5621 5620 5618 5617 5616 5615 5615 5616 5617
5731 5728 5726 5723 5721 5718 5715 5713 5710 5707 5704 5701 5697 5694 5690 5687 5683 5678 5674 5670 5665 5661 5657 5653 5648 5644 5639 5635 5631 5628 5625 5621 5619 5616 5614 5613 5611 5610 5609 5608 5608 5608 5609
5730 5728 5725 5723 5720 5717 5714 5712 5708 5705 5702 5699 5695 5691 5687 5683 5679 5675 5670 5666 5661 5656 5651 5647 5642 5637 5633 5629 5625 5622 5618 5615 5612 5610 5607 5606 5604 5602 5601 5601 5600 5601 5602
5730 5728 5725 5722 5719 5716 5714 5710 5707 5704 5700 5697 5693 5689 5685 5680 5676 5671 5667 5662 5657 5651 5646 5641 5636 5631 5627 5623 5619 5615 5612 5608 5605 5603 5600 5598 5597 5595 5594 5594 5594 5594 5595
5730 5727 5724 5722 5719 5716 5712 5709 5706 5702 5698 5695 5691 5686 5682 5677 5672 5667 5662 5657 5652 5646 5640 5635 5630 5625 5621 5617 5613 5609 5605 5602 5599 5596 5594 5592 5590 5588 5587 5587 5587 5587 5587
5729 5727 5724 5721 5718 5715 5712 5708 5704 5701 5697 5693 5688 5684 5679 5674 5669 5664 5658 5653 5647 5641 5635 5629 5624 5620 5615 5611 5607 5603 5599 5596 5593 5590 5587 5585 5583 5581 5580 5580 5579 5579 5580
5729 5726 5724 5721 5717 5714 5711 5707 5704 5700 5695 5691 5686 5681 5676 5671 5666 5660 5655 5649 5642 5636 5630 5624 5619 5614 5609 5605 5600 5597 5593 5590 5587 5584 5581 5579 5577 5575 5574 5573 5573 5572 5572
5729 5726 5723 5720 5717 5714 5710 5706 5702 5698 5694 5689 5684 5679 5674 5669 5663 5657 5651 5644 5638 5632 5626 5620 5614 5609 5604 5599 5595 5591 5588 5584 5581 5578 5576 5573 5571 5569 5568 5566 5565 5565 5565
5728 5726 5723 5720 5717 5713 5709 5705 5701 5697 5692 5687 5682 5677 5672 5666 5660 5653 5647 5640 5633 5628 5622 5616 5610 5604 5599 5594 5590 5586 5582 5579 5575 5572 5569 5567 5564 5562 5561 5559 5558 5557 5557
5728 5726 5723 5720 5716 5713 5709 5704 5700 5695 5691 5686 5680 5674 5668 5662 5656 5650 5643 5636 5630 5624 5618 5612 5606 5600 5595 5590 5585 5581 5577 5573 5570 5566 5563 5560 5558 5556 5554 5552 5551 5550 5549
5728 5725 5723 5719 5716 5712 5708 5704 5699 5694 5689 5684 5678 5672 5665 5659 5652 5646 5639 5633 5626 5620 5614 5608 5602 5596 5591 5586 5581 5577 5572 5568 5564 5561 5557 5554 5551 5549 5547 5545 5543 5542 5541
5728 5725 5722 5719 5715 5711 5707 5703 5698 5693 5687 5681 5675 5669 5662 5656 5649 5642 5636 5629 5623 5616 5610 5604 5598 5592 5586 5581 5577 5572 5567 5563 5559 5555 5551 5548 5545 5542 5540 5537 5535 5534 5532
5727 5725 5722 5719 5715 5711 5707 5702 5697 5691 5686 5680 5673 5667 5660 5653 5646 5639 5632 5626 5619 5613 5607 5600 5595 5588 5582 5577 5572 5567 5563 5558 5553 5549 5546 5542 5539 5536 5533 5531 5528 5526 5525
5727 5724 5721 5718 5714 5710 5706 5701 5696 5690 5684 5678 5672 5665 5657 5650 5643 5636 5630 5623 5616 5610 5604 5598 5591 5585 5579 5574 5568 5563 5557 5552 5548 5544 5540 5536 5533 5529 5527 5524 5522 5520 5518
5726 5724 5720 5717 5714 5710 5705 5700 5695 5689 5683 5677 5670 5663 5656 5649 5642 5635 5627 5621 5614 5608 5601 5595 5589 5583 5576 5570 5564 5558 5553 5547 5543 5538 5534 5530 5527 5524 5521 5518 5516 5514 5512
5726 5723 5720 5717 5713 5709 5704 5699 5694 5688 5682 5675 5668 5661 5654 5647 5640 5633 5626 5619 5613 5606 5600 5593 5587 5580 5574 5567 5561 5555 5549 5543 5538 5534 5529 5525 5522 5519 5516 5513 5510 5508 5506